Location: George Washington National Forest Helicopter Landing Site
(38.6463°N, 79.0851°W)
Time: 16:38:12
(UTC-04:00)

Tiros 1 - Visible Passes

Search period start: 25 August 2019 00:00
Search period end: 04 September 2019 00:00
Orbit: 631 x 664 km, 48.4° (Epoch: 25 August)

Date Brightness Start Highest point End Pass type
(mag) Time Alt. Az. Time Alt. Az. Time Alt. Az.
25 Aug 9.2 03:14:15 24° NNE 03:14:15 24° NNE 03:17:34 10° ENE visible
25 Aug 8.4 04:52:26 10° NW 04:56:50 40° NNE 05:01:16 10° E visible
26 Aug 8.9 03:39:35 26° N 03:40:20 27° NNE 03:44:21 10° ENE visible
26 Aug 7.4 05:18:27 10° NW 05:23:07 70° NNE 05:27:48 10° ESE visible
27 Aug 10.2 02:27:28 10° NE 02:27:28 10° NE 02:27:30 10° NE visible
27 Aug 8.4 04:05:10 29° NNW 04:06:48 38° NNE 04:11:11 10° E visible
27 Aug 7.2 05:44:35 10° WNW 05:49:10 57° SW 05:53:47 10° SE visible
28 Aug 9.9 02:53:24 14° ENE 02:53:24 14° ENE 02:54:15 10° ENE visible
28 Aug 7.4 04:31:09 33° NW 04:33:06 65° NNE 04:37:46 10° ESE visible
28 Aug 8.2 06:11:11 10° W 06:15:01 25° SW 06:18:53 10° S visible
28 Aug 9.0 22:03:43 10° SW 22:05:05 19° SSW 22:05:05 19° SSW visible
29 Aug 9.6 03:19:46 18° ENE 03:19:46 18° ENE 03:21:06 10° E visible
29 Aug 7.0 04:57:33 37° WNW 04:59:11 62° SW 05:03:48 10° SE visible
29 Aug 8.3 20:48:52 10° S 20:52:26 22° SE 20:54:04 18° ESE visible
29 Aug 8.7 22:29:39 10° WSW 22:31:50 27° WSW 22:31:50 27° WSW visible
30 Aug 9.4 03:46:34 17° ESE 03:46:34 17° ESE 03:47:43 10° ESE visible
30 Aug 8.0 05:24:22 26° WSW 05:25:03 28° SW 05:29:01 10° SSE visible
30 Aug 7.2 21:13:47 10° SW 21:18:14 50° SE 21:20:26 27° ENE visible
30 Aug 9.2 22:56:10 10° W 22:58:10 23° WNW 22:58:10 23° WNW visible
31 Aug 9.7 04:13:40 11° SE 04:13:40 11° SE 04:13:50 10° SE visible
31 Aug 9.1 05:51:29 11° SW 05:51:29 11° SW 05:52:13 10° SSW visible
31 Aug 7.1 21:39:38 10° WSW 21:44:15 77° NNW 21:46:21 32° NE visible
31 Aug 9.8 23:22:58 10° WNW 23:24:04 15° WNW 23:24:04 15° WNW visible
01 Sep 7.4 20:23:50 10° SSW 20:28:15 46° SE 20:32:41 10° ENE visible
01 Sep 8.2 22:06:06 10° W 22:10:30 42° NNW 22:11:55 33° NNE visible
02 Sep 7.1 20:49:37 10° WSW 20:54:15 82° NW 20:58:54 10° NE visible
02 Sep 8.8 22:32:54 10° WNW 22:36:56 29° NNW 22:37:12 29° N visible
03 Sep 8.1 21:16:03 10° W 21:20:29 44° NNW 21:24:37 12° NE visible
03 Sep 9.4 22:59:43 10° WNW 23:02:17 22° NNW 23:02:17 22° NNW visible
